FLOCK 4Y 27

导读

FLOCK 4Y 27是美国Planet公司FLOCK-4y批次中的一颗SuperDove遥感卫星,于2023年1月3日发射升空。该卫星属于Planet公司商业遥感卫星星座的组成部分,同批次共有36颗卫星一同发射,用于补充现有在轨卫星资源。卫星配备八个光谱波段,能够为农业、林业等行业提供高质量影像数据,支撑相关领域的应用与决策。

Basic Information
目录编号:
55083
目录名称:
FLOCK 4Y 27
国际标识:
2023-001CC
轨道中心:
EARTH
卫星名称:
FLOCK 4Y 27
卫星全名:
--
卫星状态:
已陨落 最后检测时间 2025-06-12
发射日期:
2023-01-03 UTC
国别 :
美国 (US)
星等 :
--
Orbit Information
数据来源 国际轨道数据
星历时间: 2025-06-09T18:37:24+0800
轨道信息已过期368天
半长轴: 6534.163km
偏心率: 0.0015532
轨道倾角: 97.347°
近地点辐角 267.843°
升交点赤经 237.418°
平近点角 92.109°
近地点: 145.879km
远地点: 166.177km
周期: 87.608分钟
每日圈数: 16.436823
Detailed Information
使用方式:
暂无